This demonstration page uses our WeatherBlox Daily Observations layout. Learn more.

Left ArrowRight Arrow

38.20091, -84.87328

Hourly Observations for July 8, 2017

Temp ( °F °C ) Dew Point ( °F °C ) Humidity (%) Winds ( mph kmh ) Pressure ( in mb ) Visibility ( mi km ) Precip ( " mm )
12:02 am 00:02 Mostly Cloudy 69 20.6 65 18.3 87 87 Calm 29.88 1012 10 16 0.00 0.00
12:53 am 00:53 Clear 69 20.6 66 18.9 90 90 NE 3 6 29.89 1012 10 16 0.00 0.00
1:53 am 01:53 Partly Cloudy 68 20 65 18.3 90 90 Calm 29.91 1013 10 16 0.00 0.00
2:53 am 02:53 Mostly Cloudy 68 20 65 18.3 90 90 Calm 29.91 1013 10 16 0.00 0.00
3:53 am 03:53 Clear 67 19.4 64 17.8 91 91 Calm 29.91 1013 10 16 0.00 0.00
4:53 am 04:53 Clear 67 19.4 64 17.8 91 91 SSW 5 7 29.90 1013 10 16 0.00 0.00
5:53 am 05:53 Mostly Clear with Mist and Fog 66 18.9 64 17.8 93 93 WSW 3 6 29.91 1013 6 10 0.00 0.00
6:08 am 06:08 Mostly Cloudy with Mist and Fog 67 19.4 64 17.8 91 91 WSW 3 6 29.91 1013 6 10 0.00 0.00
6:53 am 06:53 Cloudy with Mist and Fog 67 19.4 64 17.8 91 91 Calm 29.93 1014 4 6 0.00 0.00
7:53 am 07:53 Cloudy with Mist and Fog 67 19.4 65 18.3 93 93 VRB 5 7 29.94 1014 4 6 0.00 0.00
8:18 am 08:18 Cloudy with Mist and Fog 67 19.4 64 17.8 91 91 WNW 6 9 29.97 1015 3 4 0.00 0.00
8:34 am 08:34 Cloudy with Mist and Fog 67 19.4 65 18.3 93 93 W 5 7 29.97 1015 3 5 0.00 0.00
8:53 am 08:53 Cloudy 68 20 65 18.3 90 90 NNW 5 7 29.96 1015 8 13 0.00 0.00
9:35 am 09:35 Cloudy 70 21.1 65 18.3 84 84 W 5 7 29.97 1015 9 14 0.00 0.00
9:53 am 09:53 Cloudy 71 21.7 66 18.9 84 84 NW 5 7 29.98 1015 10 16 0.00 0.00
10:02 am 10:02 Cloudy 71 21.7 66 18.9 84 84 WNW 5 7 29.97 1015 10 16 0.00 0.00
10:41 am 10:41 Partly Cloudy 76 24.4 66 18.9 72 72 VRB 6 9 29.97 1015 10 16 0.00 0.00
10:53 am 10:53 Mostly Sunny 76 24.4 66 18.9 72 72 NW 5 7 29.98 1015 10 16 0.00 0.00
11:53 am 11:53 Mostly Sunny 79 26.1 66 18.9 65 65 VRB 3 6 29.98 1015 10 16 0.00 0.00
12:53 pm 12:53 Mostly Sunny 83 28.3 67 19.4 59 59 WNW 6 9 29.98 1015 10 16 0.00 0.00
1:53 pm 13:53 Sunny 82 27.8 63 17.2 53 53 W 8 13 29.98 1015 10 16 0.00 0.00
2:53 pm 14:53 Mostly Sunny 84 28.9 59 15 43 43 WNW 10 17 29.97 1015 10 16 0.00 0.00
3:53 pm 15:53 Mostly Sunny 85 29.4 57 13.9 39 39 NW 10 17 29.97 1015 10 16 0.00 0.00
4:53 pm 16:53 Sunny 85 29.4 59 15 42 42 NNW 10 17 29.96 1015 10 16 0.00 0.00
5:53 pm 17:53 Sunny 84 28.9 57 13.9 40 40 NW 9 15 29.96 1015 10 16 0.00 0.00
6:53 pm 18:53 Sunny 83 28.3 58 14.4 43 43 NNW 9 15 29.96 1015 10 16 0.00 0.00
7:53 pm 19:53 Sunny 81 27.2 59 15 47 47 NNW 8 13 29.97 1015 10 16 0.00 0.00
8:53 pm 20:53 Sunny 76 24.4 61 16.1 60 60 Calm 29.99 1016 10 16 0.00 0.00
9:53 pm 21:53 Clear 72 22.2 61 16.1 68 68 NNW 3 6 30.01 1016 10 16 0.00 0.00
10:53 pm 22:53 Clear 68 20 61 16.1 78 78 Calm 30.03 1017 10 16 0.00 0.00
11:53 pm 23:53 Clear 68 20 61 16.1 78 78 Calm 30.03 1017 10 16 0.00 0.00

Powered by AerisWeather